Zurück zum Katalog

STARLINK-6122

AktivKommunikationVLEO
NORAD 56128·PAYLOAD·🇺🇸 United States

Gestartet Mar 29, 2023 von Cape Canaveral Space Force Station

Loading…

Nächste Überflüge (nächste 24 Stunden)

TLE

AktuellSource: CelesTrak SupGP

Epoche: Sep 15, 2026, 01:30 UTC

1 56128C 23046AM  26258.06298611  .00015712  00000+0  56925-3 0  2586
2 56128  43.0012 157.9018 0001164 270.4739 236.2687 15.27562263    13

Verfolge STARLINK-6122 in Echtzeit mit AllMySat

Download on the App Store